Theta_e
312 320 329 334 329 326 323 321 319 316 314 314 312 312 312 311 310 309 309 306 307 306 306 308 309 309 308 308 307 305 304 304 304 304 305 309 312 312 312 311 309 309 307
312 324 327 327 326 324 321 320 318 316 314 313 312 311 310 310 310 309 308 306 306 305 305 306 307 308 308 307 306 305 304 303 304 304 302 301 306 307 307 311 310 309 305
310 320 320 322 322 321 320 318 317 315 314 313 311 310 310 310 310 309 308 306 305 304 305 305 306 307 308 307 306 305 304 304 303 304 303 300 301 301 306 309 309 305 305
310 317 317 317 319 320 319 318 316 314 313 312 310 311 311 310 309 308 306 307 305 304 304 304 305 306 307 307 306 306 305 304 303 303 303 304 304 301 302 305 306 305 303
306 312 313 318 319 318 318 316 315 314 313 312 311 310 310 308 309 308 308 306 305 305 304 304 304 305 306 306 306 305 305 304 303 303 303 303 303 303 302 301 302 303 303
304 304 307 316 316 316 315 315 314 314 313 312 311 309 308 309 308 308 307 306 305 305 305 305 304 304 305 305 305 305 304 304 303 303 303 303 302 302 302 299 299 300 303
304 306 309 310 313 314 314 314 314 313 313 311 310 309 309 309 308 308 306 306 306 305 305 305 305 304 305 305 304 304 303 303 303 303 303 302 303 302 302 302 300 299 302
304 306 309 311 313 314 313 313 313 312 311 310 309 309 309 309 309 309 308 307 306 306 305 305 305 304 304 304 303 303 303 303 302 302 302 302 302 302 302 302 301 298 299
303 303 304 309 311 312 312 312 312 311 310 310 309 309 309 309 309 308 308 307 306 305 305 304 304 304 303 303 303 302 302 302 302 302 302 302 302 301 301 302 301 301 299
302 302 302 303 304 305 307 308 309 308 309 309 309 310 310 309 309 308 307 306 306 305 304 303 303 303 303 302 302 301 301 301 300 301 301 301 301 300 301 301 301 301 300
302 301 301 301 302 303 304 304 304 304 305 307 308 308 308 308 308 307 306 305 304 304 303 303 302 301 301 301 300 300 299 299 299 299 298 298 298 299 299 299 300 300 300
301 299 299 299 300 301 302 302 303 303 303 303 304 304 304 304 304 303 302 302 302 301 301 301 300 300 300 299 299 299 299 298 298 298 297 297 297 297 297 297 297 298 298
299 298 297 297 298 298 299 300 300 300 301 301 301 301 301 301 301 301 301 301 301 300 300 300 300 299 299 299 299 298 298 297 297 297 296 296 296 296 296 296 296 296 296
300 298 297 296 297 297 298 298 298 298 298 298 297 296 296 296 295 295 295 294 293 293 293 292 292 292 294 295 294 294 295 295 294 294 293 294 294 296 296 296 297 296 296
299 298 296 296 296 296 296 295 295 294 293 292 291 290 290 290 289 289 289 289 288 289 289 288 288 288 288 289 289 290 290 290 290 289 289 289 290 291 293 295 295 296 297
299 297 296 295 294 293 293 292 291 290 289 289 289 289 288 288 288 288 288 288 287 287 287 287 287 287 287 288 288 291 289 290 290 289 288 288 289 288 290 293 292 292 293
298 297 294 293 292 292 291 291 290 289 289 289 288 288 288 287 287 287 287 287 287 287 287 287 287 287 287 287 287 288 287 288 288 288 288 288 288 288 288 288 290 292 291
296 294 292 291 291 291 290 290 289 288 288 288 288 288 288 288 287 287 287 287 287 287 287 287 287 287 287 286 286 287 287 287 287 287 288 288 288 288 289 288 291 291 291
294 292 291 290 289 289 289 289 288 288 288 288 288 288 288 287 287 287 287 287 287 286 286 286 286 286 286 286 286 287 287 288 288 288 288 287 287 289 289 289 289 289 290
291 289 290 289 289 288 288 289 288 289 289 288 288 288 287 287 287 287 287 286 286 286 286 286 286 286 286 286 286 287 287 287 287 287 287 287 288 289 289 289 289 289 289
289 289 289 289 289 289 289 288 288 288 288 288 287 287 287 287 287 286 286 286 286 286 285 285 285 285 285 285 286 286 287 286 287 287 287 287 287 288 289 289 289 289 289
289 289 289 289 289 289 288 288 288 287 287 287 287 287 286 286 286 286 285 285 285 285 285 285 285 285 285 285 285 286 286 286 287 287 287 287 288 288 288 288 288 288 288
289 289 289 289 288 288 287 287 287 287 287 287 286 286 286 285 285 285 284 284 284 284 284 284 284 285 285 285 285 285 286 286 287 287 287 287 287 287 288 287 288 288 287
288 288 287 287 287 287 287 286 286 286 286 286 285 285 285 285 284 284 284 284 284 284 284 284 284 284 284 284 285 285 286 286 286 286 287 287 287 287 287 287 286 286 286
288 288 287 287 286 286 286 285 285 285 285 284 284 284 284 284 284 283 283 283 283 284 284 284 284 284 284 284 285 286 286 286 286 287 286 286 286 286 285 285 285 285 285
287 286 286 285 285 285 284 284 284 284 284 283 283 283 283 283 282 282 282 283 283 284 284 284 284 284 284 284 285 285 285 285 286 286 285 285 284 284 284 284 284 285 285
Wind_Speed
9 20 27 31 32 33 32 28 25 22 22 21 19 16 13 12 10 7 5 3 2 1 1 1 1 2 4 5 8 9 9 9 16 7 5 6 1 2 3 5 6 8 9
6 9 22 30 34 34 32 28 25 23 22 21 18 13 14 12 10 8 6 4 2 1 1 1 1 1 3 3 6 8 8 7 13 7 3 3 2 5 2 2 5 8 9
10 8 14 26 31 33 31 28 24 23 22 19 17 12 13 10 10 11 8 6 3 2 1 1 1 1 1 2 3 5 7 7 7 8 4 2 1 4 3 2 3 8 10
6 8 11 18 28 29 27 25 23 22 21 19 17 16 17 12 11 10 8 7 4 2 2 2 1 1 2 2 2 4 4 5 5 3 6 3 1 0 3 2 3 9 16
7 9 9 22 24 24 25 24 22 21 20 18 17 15 13 9 8 9 9 6 5 3 3 2 2 2 2 2 2 3 3 4 3 4 4 3 3 1 1 3 7 20 10
7 7 10 20 21 21 22 23 22 21 19 17 15 14 13 11 11 10 9 7 6 6 5 3 3 3 3 3 3 3 3 3 4 5 4 4 3 3 2 2 4 7 8
6 6 7 13 21 21 21 21 20 20 18 16 14 14 12 12 11 9 8 8 7 7 5 5 4 4 3 3 4 4 4 5 5 6 6 7 8 8 7 5 4 3 8
5 6 7 14 20 21 19 19 19 18 16 15 13 12 10 10 9 8 7 7 7 6 5 6 5 5 5 5 5 6 5 6 6 7 8 9 9 10 11 9 5 3 3
7 7 9 13 15 15 14 15 16 14 14 12 11 10 9 9 7 6 6 5 5 4 4 5 5 6 6 6 7 7 7 8 8 9 10 12 11 12 12 12 11 6 2
8 8 11 17 19 17 15 14 12 11 10 11 10 9 8 6 5 4 3 3 3 3 3 4 5 5 6 7 8 8 8 10 10 11 12 13 14 14 14 14 14 15 15
8 8 11 18 21 20 20 20 18 18 16 13 11 9 8 7 7 5 3 2 2 1 0 1 3 3 4 5 7 8 9 10 11 11 13 15 14 16 16 15 16 17 18
8 8 12 17 20 21 21 21 20 20 19 20 21 20 18 16 14 12 11 9 8 6 4 3 3 4 4 5 7 8 9 10 11 12 13 15 15 16 16 16 17 19 20
10 8 10 12 17 21 22 22 21 21 21 21 22 21 19 17 16 14 12 10 8 8 7 7 7 7 7 7 7 9 9 10 11 13 14 16 16 17 18 19 20 20 21
11 8 7 11 17 20 23 23 23 23 23 24 24 23 21 19 18 16 15 14 13 12 12 11 10 10 9 9 11 12 12 13 14 14 15 16 16 16 18 20 20 21 20
12 10 9 10 17 20 21 21 21 21 22 23 23 21 19 17 16 15 14 12 12 11 11 10 11 12 12 13 14 14 15 15 16 16 17 17 17 16 16 15 18 18 19
13 11 11 14 14 19 21 21 21 20 21 21 20 17 15 14 13 11 11 10 10 11 11 13 13 14 15 15 15 15 18 18 19 20 21 20 19 19 19 20 18 15 18
14 13 11 14 19 21 21 21 20 18 18 17 15 13 11 11 10 9 10 11 12 12 13 14 15 17 17 17 18 19 20 21 22 22 22 22 22 21 22 23 23 22 23
14 11 15 20 22 20 19 19 18 17 15 13 11 10 9 9 9 10 11 11 12 14 15 16 16 17 18 19 20 20 21 22 22 22 22 23 24 22 21 24 25 26 25
16 18 24 24 21 20 18 17 15 13 12 10 8 8 8 8 9 11 12 12 13 15 16 16 17 18 19 19 19 19 21 22 22 20 20 21 23 20 18 21 24 24 25
21 23 26 23 20 17 16 15 13 11 8 6 5 5 6 7 9 10 12 14 14 16 16 18 18 18 21 19 18 16 19 23 25 26 25 23 20 18 18 19 19 22 26
24 27 25 22 18 15 14 13 10 7 5 3 3 4 6 8 9 11 13 14 15 16 17 19 20 19 18 19 19 19 21 23 25 24 27 26 21 19 19 19 20 22 23
21 24 22 19 15 13 12 10 7 4 2 2 4 6 7 9 10 12 13 15 15 18 19 19 21 18 17 18 19 21 20 21 22 25 25 21 19 20 22 24 23 23 23
19 22 20 17 13 11 9 8 5 2 2 4 6 7 8 10 11 12 14 16 15 17 20 19 18 18 20 21 21 20 20 20 22 24 25 25 25 24 23 22 23 22 24
17 20 19 16 13 9 8 6 3 2 3 5 6 7 9 11 12 13 13 14 16 16 17 17 16 19 19 19 21 22 22 22 21 24 25 24 22 23 23 24 25 23 22
17 16 14 12 10 7 5 3 2 3 4 5 8 9 9 11 11 12 13 13 14 14 17 20 20 21 17 19 21 21 23 23 23 24 19 19 19 21 23 22 22 21 21
14 12 11 10 6 3 2 2 3 3 5 6 7 6 8 9 11 13 14 12 13 14 16 17 18 20 20 21 22 21 21 23 23 18 16 18 18 19 20 19 20 20 20
Wind_Direction
226 207 199 195 186 184 183 183 180 180 180 179 177 182 188 183 185 191 199 206 199 256 308 310 328 356 351 13 10 14 19 19 10 5 41 58 121 6 353 13 23 14 7
169 161 173 177 181 181 183 182 184 181 185 190 189 192 190 193 195 194 196 206 216 239 256 277 280 318 353 1 12 19 21 22 19 14 11 10 351 3 35 333 356 360 349
184 162 160 169 177 178 181 182 183 186 187 191 189 188 180 179 189 196 205 202 205 223 240 268 273 275 325 3 14 20 22 19 21 38 35 31 301 330 354 346 326 8 345
160 158 156 162 176 180 182 184 185 186 186 187 190 190 185 185 203 211 203 195 205 216 232 252 258 267 277 311 350 3 2 8 17 349 14 7 313 74 332 311 302 320 333
146 150 153 171 178 177 181 184 184 184 184 189 192 194 200 201 191 186 189 200 209 215 227 245 254 262 260 280 309 329 342 344 347 353 343 355 335 255 149 292 319 330 337
113 109 150 181 176 176 177 180 181 182 185 188 195 204 196 190 185 190 200 208 214 220 227 242 254 253 261 270 288 300 309 319 314 314 307 305 315 307 318 298 305 298 329
124 122 130 145 164 168 172 177 180 180 185 190 196 198 202 205 207 209 214 215 221 226 236 245 256 262 268 274 290 300 303 305 305 302 297 287 282 283 286 279 285 296 314
98 102 119 137 152 159 164 172 174 176 183 190 195 201 207 214 218 222 226 232 238 243 247 250 257 275 272 276 285 291 294 300 301 297 292 292 287 281 279 273 286 318 299
98 97 90 109 127 142 154 167 172 177 185 192 195 201 208 215 221 225 231 239 246 256 253 248 264 277 276 279 281 287 294 293 297 299 294 288 292 290 286 279 273 244 293
101 90 90 98 109 114 122 138 145 151 175 188 193 200 203 206 205 207 218 238 252 253 257 263 276 286 287 288 285 287 293 292 296 299 297 295 298 296 288 282 274 261 246
119 108 99 101 109 110 111 112 114 113 112 129 154 162 156 164 166 154 142 124 108 105 215 296 295 303 304 300 301 302 302 299 302 302 300 299 300 296 294 288 279 270 258
119 111 105 105 103 106 107 108 110 110 111 113 114 110 113 114 111 102 98 100 97 87 66 35 18 12 351 330 319 316 314 312 312 312 307 305 309 302 300 295 287 282 279
119 112 104 102 104 107 108 108 110 111 114 114 110 105 101 99 95 92 89 82 74 64 55 45 35 23 9 354 344 337 334 329 327 323 320 315 313 311 309 306 301 294 289
134 124 115 112 112 114 115 113 111 113 112 110 105 100 96 94 90 87 80 73 66 61 52 42 33 25 17 2 354 346 337 331 327 325 321 318 316 313 310 309 308 305 299
145 142 136 131 128 125 123 120 117 115 113 107 100 95 94 91 86 78 69 61 51 41 30 17 10 2 358 353 348 343 337 332 327 324 324 323 320 317 317 317 314 314 314
153 147 143 142 139 137 133 127 122 117 114 106 100 98 91 83 72 63 51 39 27 17 7 2 354 348 345 343 338 333 329 323 321 319 321 320 318 317 312 307 312 315 313
155 152 149 145 146 144 140 133 128 123 115 108 102 93 84 72 58 45 33 22 13 3 358 353 348 343 338 335 329 325 322 316 313 312 311 311 310 311 312 308 304 299 305
150 146 144 147 149 147 142 138 134 127 118 107 97 83 66 51 37 26 16 6 357 351 345 341 338 332 328 326 324 320 316 314 312 309 308 306 304 302 305 311 306 301 300
147 148 151 150 147 146 144 140 136 127 113 99 86 63 43 28 14 5 358 353 345 338 336 334 331 329 325 328 326 321 319 317 315 313 312 313 306 295 301 304 303 307 306
141 142 150 146 144 143 146 137 132 132 113 97 76 44 22 10 0 351 346 339 336 331 331 327 330 329 326 329 330 329 329 325 321 318 314 310 308 292 295 303 304 304 303
135 145 147 144 141 141 142 127 125 115 108 93 45 16 3 355 351 341 338 336 333 330 331 328 327 326 330 329 326 322 319 317 315 312 311 313 311 302 295 297 299 303 306
132 141 138 139 137 134 132 122 113 113 99 23 358 354 347 342 338 337 338 336 336 330 327 327 326 328 331 330 323 316 313 310 307 306 306 308 305 300 300 298 295 297 301
127 136 133 129 126 127 124 116 106 83 10 346 339 335 336 337 340 338 335 332 333 329 324 322 322 323 325 324 323 315 311 309 304 301 300 298 298 297 296 297 302 302 299
117 128 127 119 105 105 106 100 84 23 334 328 328 332 332 333 331 332 334 327 322 319 316 313 307 311 315 315 318 316 314 314 310 308 308 305 301 301 300 301 304 304 304
109 115 115 120 119 114 96 72 11 330 327 331 331 331 329 324 324 323 321 314 310 306 310 311 312 311 309 311 311 316 317 318 315 313 313 307 309 308 308 308 307 306 305
113 115 120 123 117 102 63 10 347 344 340 317 302 307 313 317 319 317 319 322 315 310 308 307 308 310 310 314 314 313 315 314 315 318 311 309 304 298 298 297 300 306 305